User: anonymous   Login
Location: Unspecified
(0.0000°N, 0.0000°E)
Time: 07:41:09
(UTC+00:00)
Language:

TIANWANG 1C (TW-1C) - Orbit

View from above orbital plane
View from above orbital plane
View from above satellite
View from above satellite

Ground track
Ground track

The orbit data is extracted from the following two-line orbital elements,

1 40926U 15051B   17290.13333602  .00014871  00000-0  31698-3 0  9994
2 40926  97.2191 328.8183 0013355  86.4541 351.2986 15.44914805115732
Epoch (UTC): 17 October 2017 03:12:00
Eccentricity: 0.0013355
inclination: 97.2191°
perigee height: 422 km
apogee height: 441 km
right ascension of ascending node: 328.8183°
argument of perigee: 86.4541°
revolutions per day: 15.44914805
mean anomaly at epoch: 351.2986°
orbit number at epoch: 11573

The dashed part of the orbit path shows where the satellite is in the earth's shadow,  

DLR